contact:dominique.lefevre@mio.osupytheas.fr, maurice.libes@osupytheas.fr, didier.mallarino@osupytheas.fr
Project:EMSO http://www.emso-fr.org/EMSO-France
Depth: 2436.0 m
Title:EMSO Ligure Ouest : Data MII capteur MICROCAT
DateTime_Computer,Latitude,Longitude,Temperature,Conductivity,Pressure,DateTime_Instrument
DateTime_Computer,Latitude,Longitude,degC,S m-1,dbar,DateTime_Instrument
2021-07-20T00:02:32Z,42.805,6.029,13.2989,4.60003,2470.45,2021-7-20T02:03:49Z
2021-07-20T00:05:36Z,42.805,6.029,13.2990,4.59999,2470.437,2021-7-20T02:06:52Z
2021-07-20T00:08:39Z,42.805,6.029,13.2991,4.60000,2470.474,2021-7-20T02:09:55Z
2021-07-20T00:11:42Z,42.805,6.029,13.2994,4.60002,2470.497,2021-7-20T02:12:58Z
2021-07-20T00:14:45Z,42.805,6.029,13.2994,4.60001,2470.437,2021-7-20T02:16:01Z
2021-07-20T00:17:48Z,42.805,6.029,13.2992,4.60001,2470.423,2021-7-20T02:19:04Z
2021-07-20T00:20:51Z,42.805,6.029,13.2991,4.60000,2470.46,2021-7-20T02:22:08Z
2021-07-20T00:23:54Z,42.805,6.029,13.2996,4.60000,2470.46,2021-7-20T02:25:11Z
2021-07-20T00:26:57Z,42.805,6.029,13.2993,4.60001,2470.46,2021-7-20T02:28:14Z
2021-07-20T00:30:01Z,42.805,6.029,13.2993,4.60002,2470.437,2021-7-20T02:31:17Z
2021-07-20T00:33:04Z,42.805,6.029,13.2993,4.60011,2470.497,2021-7-20T02:34:20Z
2021-07-20T00:36:07Z,42.805,6.029,13.2991,4.60001,2470.45,2021-7-20T02:37:23Z
2021-07-20T00:39:10Z,42.805,6.029,13.2992,4.60002,2470.497,2021-7-20T02:40:26Z
2021-07-20T00:42:13Z,42.805,6.029,13.2991,4.60002,2470.474,2021-7-20T02:43:29Z
2021-07-20T00:45:16Z,42.805,6.029,13.2991,4.60002,2470.474,2021-7-20T02:46:33Z
2021-07-20T00:48:19Z,42.805,6.029,13.2990,4.60000,2470.483,2021-7-20T02:49:36Z
2021-07-20T00:51:22Z,42.805,6.029,13.2991,4.60003,2470.483,2021-7-20T02:52:39Z
2021-07-20T00:54:26Z,42.805,6.029,13.2993,4.60002,2470.483,2021-7-20T02:55:42Z
2021-07-20T00:57:29Z,42.805,6.029,13.2991,4.60003,2470.497,2021-7-20T02:58:45Z
2021-07-20T01:00:32Z,42.805,6.029,13.2991,4.60002,2470.474,2021-7-20T03:01:48Z
2021-07-20T01:03:35Z,42.805,6.029,13.2991,4.60001,2470.483,2021-7-20T03:04:51Z
2021-07-20T01:06:38Z,42.805,6.029,13.2993,4.60001,2470.483,2021-7-20T03:07:54Z
2021-07-20T01:09:41Z,42.805,6.029,13.2993,4.60002,2470.507,2021-7-20T03:10:57Z
2021-07-20T01:12:44Z,42.805,6.029,13.2996,4.60001,2470.483,2021-7-20T03:14:01Z
2021-07-20T01:15:47Z,42.805,6.029,13.2990,4.60001,2470.483,2021-7-20T03:17:04Z
2021-07-20T01:18:50Z,42.805,6.029,13.2993,4.60008,2470.46,2021-7-20T03:20:07Z
2021-07-20T01:21:54Z,42.805,6.029,13.2992,4.60003,2470.46,2021-7-20T03:23:10Z
2021-07-20T01:24:57Z,42.805,6.029,13.2991,4.60005,2470.497,2021-7-20T03:26:13Z
2021-07-20T01:28:00Z,42.805,6.029,13.2995,4.60002,2470.483,2021-7-20T03:29:16Z
2021-07-20T01:31:03Z,42.805,6.029,13.2991,4.60002,2470.483,2021-7-20T03:32:19Z
2021-07-20T01:34:06Z,42.805,6.029,13.2988,4.60003,2470.52,2021-7-20T03:35:22Z
2021-07-20T01:37:09Z,42.805,6.029,13.2991,4.60001,2470.507,2021-7-20T03:38:26Z
2021-07-20T01:40:12Z,42.805,6.029,13.2993,4.60001,2470.52,2021-7-20T03:41:29Z
2021-07-20T01:43:15Z,42.805,6.029,13.2993,4.60003,2470.483,2021-7-20T03:44:32Z
2021-07-20T01:46:19Z,42.805,6.029,13.2987,4.60004,2470.483,2021-7-20T03:47:35Z
2021-07-20T01:49:22Z,42.805,6.029,13.2991,4.60008,2470.46,2021-7-20T03:50:38Z
2021-07-20T01:52:25Z,42.805,6.029,13.2991,4.60005,2470.52,2021-7-20T03:53:41Z
2021-07-20T01:55:28Z,42.805,6.029,13.2991,4.60005,2470.497,2021-7-20T03:56:44Z
2021-07-20T01:58:31Z,42.805,6.029,13.2998,4.60004,2470.507,2021-7-20T03:59:47Z
2021-07-20T02:01:34Z,42.805,6.029,13.2992,4.60003,2470.483,2021-7-20T04:02:51Z
2021-07-20T02:04:37Z,42.805,6.029,13.2992,4.60003,2470.52,2021-7-20T04:05:54Z
2021-07-20T02:07:40Z,42.805,6.029,13.2993,4.60011,2470.52,2021-7-20T04:08:57Z
2021-07-20T02:10:44Z,42.805,6.029,13.2990,4.60003,2470.497,2021-7-20T04:12:00Z
2021-07-20T02:13:47Z,42.805,6.029,13.2993,4.60004,2470.507,2021-7-20T04:15:03Z
2021-07-20T02:16:50Z,42.805,6.029,13.2993,4.60004,2470.507,2021-7-20T04:18:06Z
2021-07-20T02:19:53Z,42.805,6.029,13.2991,4.60003,2470.507,2021-7-20T04:21:09Z
2021-07-20T02:22:56Z,42.805,6.029,13.2991,4.60003,2470.52,2021-7-20T04:24:12Z
2021-07-20T02:25:59Z,42.805,6.029,13.2991,4.60004,2470.497,2021-7-20T04:27:16Z
2021-07-20T02:29:02Z,42.805,6.029,13.2991,4.60003,2470.507,2021-7-20T04:30:19Z
2021-07-20T02:32:05Z,42.805,6.029,13.2993,4.60007,2470.483,2021-7-20T04:33:22Z
2021-07-20T02:35:09Z,42.805,6.029,13.2991,4.60008,2470.53,2021-7-20T04:36:25Z
2021-07-20T02:38:12Z,42.805,6.029,13.2994,4.60007,2470.507,2021-7-20T04:39:28Z
2021-07-20T02:41:15Z,42.805,6.029,13.2992,4.60003,2470.483,2021-7-20T04:42:31Z
2021-07-20T02:44:18Z,42.805,6.029,13.3008,4.60011,2470.47,2021-7-20T04:45:34Z
2021-07-20T02:47:21Z,42.805,6.029,13.2991,4.60013,2470.507,2021-7-20T04:48:37Z
2021-07-20T02:50:24Z,42.805,6.029,13.2993,4.60008,2470.53,2021-7-20T04:51:41Z
2021-07-20T02:53:27Z,42.805,6.029,13.2991,4.60006,2470.52,2021-7-20T04:54:44Z
2021-07-20T02:56:30Z,42.805,6.029,13.2997,4.60007,2470.507,2021-7-20T04:57:47Z
2021-07-20T02:59:34Z,42.805,6.029,13.2991,4.60009,2470.507,2021-7-20T05:00:50Z
2021-07-20T03:02:37Z,42.805,6.029,13.2991,4.60007,2470.53,2021-7-20T05:03:53Z
2021-07-20T03:05:40Z,42.805,6.029,13.2996,4.60009,2470.507,2021-7-20T05:06:56Z
2021-07-20T03:08:43Z,42.805,6.029,13.2993,4.60015,2470.507,2021-7-20T05:09:59Z
2021-07-20T03:11:46Z,42.805,6.029,13.2992,4.60013,2470.507,2021-7-20T05:13:02Z
2021-07-20T03:14:49Z,42.805,6.029,13.2993,4.60007,2470.507,2021-7-20T05:16:06Z
2021-07-20T03:17:52Z,42.805,6.029,13.2994,4.60009,2470.53,2021-7-20T05:19:09Z
2021-07-20T03:20:55Z,42.805,6.029,13.2989,4.60006,2470.53,2021-7-20T05:22:12Z
2021-07-20T03:23:59Z,42.805,6.029,13.2993,4.60012,2470.544,2021-7-20T05:25:15Z
2021-07-20T03:27:02Z,42.805,6.029,13.2991,4.60009,2470.53,2021-7-20T05:28:18Z
2021-07-20T03:30:05Z,42.805,6.029,13.2991,4.60005,2470.507,2021-7-20T05:31:21Z
2021-07-20T03:33:08Z,42.805,6.029,13.2993,4.60009,2470.507,2021-7-20T05:34:24Z
2021-07-20T03:36:11Z,42.805,6.029,13.2991,4.60009,2470.544,2021-7-20T05:37:27Z
2021-07-20T03:39:14Z,42.805,6.029,13.2995,4.60012,2470.507,2021-7-20T05:40:31Z
2021-07-20T03:42:17Z,42.805,6.029,13.2996,4.60011,2470.52,2021-7-20T05:43:34Z
2021-07-20T03:45:20Z,42.805,6.029,13.2991,4.60013,2470.544,2021-7-20T05:46:37Z
2021-07-20T03:48:24Z,42.805,6.029,13.2995,4.60018,2470.507,2021-7-20T05:49:40Z
2021-07-20T03:51:27Z,42.805,6.029,13.2995,4.60014,2470.52,2021-7-20T05:52:43Z
2021-07-20T03:54:30Z,42.805,6.029,13.2995,4.60010,2470.497,2021-7-20T05:55:46Z
2021-07-20T03:57:33Z,42.805,6.029,13.2997,4.60019,2470.483,2021-7-20T05:58:49Z
2021-07-20T04:00:36Z,42.805,6.029,13.3014,4.60019,2470.483,2021-7-20T06:01:52Z
2021-07-20T04:03:39Z,42.805,6.029,13.2996,4.60015,2470.52,2021-7-20T06:04:56Z
2021-07-20T04:06:42Z,42.805,6.029,13.3106,4.60014,2470.53,2021-7-20T06:07:59Z
2021-07-20T04:09:45Z,42.805,6.029,13.2992,4.60026,2470.483,2021-7-20T06:11:02Z
2021-07-20T04:12:49Z,42.805,6.029,13.3017,4.60013,2470.497,2021-7-20T06:14:05Z
2021-07-20T04:15:52Z,42.805,6.029,13.3012,4.60031,2470.497,2021-7-20T06:17:08Z
2021-07-20T04:18:55Z,42.805,6.029,13.3049,4.60044,2470.497,2021-7-20T06:20:11Z
2021-07-20T04:21:58Z,42.805,6.029,13.3011,4.60031,2470.483,2021-7-20T06:23:14Z
2021-07-20T04:25:01Z,42.805,6.029,13.3015,4.60042,2470.483,2021-7-20T06:26:17Z
2021-07-20T04:28:04Z,42.805,6.029,13.3033,4.60029,2470.52,2021-7-20T06:29:21Z
2021-07-20T04:31:07Z,42.805,6.029,13.3035,4.60033,2470.507,2021-7-20T06:32:24Z
2021-07-20T04:34:10Z,42.805,6.029,13.3001,4.60026,2470.52,2021-7-20T06:35:27Z
2021-07-20T04:37:14Z,42.805,6.029,13.3027,4.60045,2470.52,2021-7-20T06:38:30Z
2021-07-20T04:40:17Z,42.805,6.029,13.3024,4.60077,2470.483,2021-7-20T06:41:33Z
2021-07-20T04:43:20Z,42.805,6.029,13.3038,4.60053,2470.52,2021-7-20T06:44:36Z
2021-07-20T04:46:23Z,42.805,6.029,13.3028,4.60078,2470.52,2021-7-20T06:47:39Z
2021-07-20T04:49:26Z,42.805,6.029,13.3042,4.60084,2470.507,2021-7-20T06:50:42Z
2021-07-20T04:52:29Z,42.805,6.029,13.3034,4.60057,2470.507,2021-7-20T06:53:46Z
2021-07-20T04:55:32Z,42.805,6.029,13.3031,4.60033,2470.52,2021-7-20T06:56:49Z
2021-07-20T04:58:35Z,42.805,6.029,13.3031,4.60039,2470.507,2021-7-20T06:59:52Z
2021-07-20T05:01:39Z,42.805,6.029,13.3030,4.60066,2470.497,2021-7-20T07:02:55Z
2021-07-20T05:04:42Z,42.805,6.029,13.3046,4.60044,2470.46,2021-7-20T07:05:58Z
2021-07-20T05:07:45Z,42.805,6.029,13.3039,4.60050,2470.507,2021-7-20T07:09:01Z
2021-07-20T05:10:48Z,42.805,6.029,13.3044,4.60082,2470.46,2021-7-20T07:12:04Z
2021-07-20T05:13:51Z,42.805,6.029,13.3027,4.60050,2470.46,2021-7-20T07:15:07Z
2021-07-20T05:16:54Z,42.805,6.029,13.3031,4.60069,2470.52,2021-7-20T07:18:10Z
2021-07-20T05:19:57Z,42.805,6.029,13.3053,4.60052,2470.507,2021-7-20T07:21:14Z
2021-07-20T05:23:00Z,42.805,6.029,13.3057,4.60049,2470.483,2021-7-20T07:24:17Z
2021-07-20T05:26:03Z,42.805,6.029,13.3063,4.60020,2470.497,2021-7-20T07:27:20Z
2021-07-20T05:29:07Z,42.805,6.029,13.3024,4.60021,2470.497,2021-7-20T07:30:23Z
2021-07-20T05:32:10Z,42.805,6.029,13.3039,4.60018,2470.483,2021-7-20T07:33:26Z
2021-07-20T05:35:13Z,42.805,6.029,13.3053,4.60031,2470.52,2021-7-20T07:36:29Z
2021-07-20T05:38:16Z,42.805,6.029,13.3050,4.60016,2470.483,2021-7-20T07:39:32Z
2021-07-20T05:41:19Z,42.805,6.029,13.3052,4.60021,2470.46,2021-7-20T07:42:35Z
2021-07-20T05:44:22Z,42.805,6.029,13.3035,4.60019,2470.497,2021-7-20T07:45:39Z
2021-07-20T05:47:25Z,42.805,6.029,13.3054,4.60022,2470.483,2021-7-20T07:48:42Z
2021-07-20T05:50:28Z,42.805,6.029,13.3062,4.60056,2470.46,2021-7-20T07:51:45Z
2021-07-20T05:53:32Z,42.805,6.029,13.3067,4.60049,2470.52,2021-7-20T07:54:48Z
2021-07-20T05:56:35Z,42.805,6.029,13.3031,4.60029,2470.46,2021-7-20T07:57:51Z
2021-07-20T05:59:38Z,42.805,6.029,13.3021,4.60026,2470.483,2021-7-20T08:00:54Z
2021-07-20T06:02:41Z,42.805,6.029,13.3044,4.60016,2470.46,2021-7-20T08:03:57Z
2021-07-20T06:05:44Z,42.805,6.029,13.3043,4.60018,2470.46,2021-7-20T08:07:00Z
2021-07-20T06:08:47Z,42.805,6.029,13.3041,4.60030,2470.474,2021-7-20T08:10:04Z
2021-07-20T06:11:50Z,42.805,6.029,13.3054,4.60022,2470.497,2021-7-20T08:13:07Z
2021-07-20T06:14:53Z,42.805,6.029,13.3046,4.60017,2470.474,2021-7-20T08:16:10Z
2021-07-20T06:17:57Z,42.805,6.029,13.3043,4.60021,2470.483,2021-7-20T08:19:13Z
2021-07-20T06:21:00Z,42.805,6.029,13.3054,4.60038,2470.474,2021-7-20T08:22:16Z
2021-07-20T06:24:03Z,42.805,6.029,13.3054,4.60039,2470.46,2021-7-20T08:25:19Z
2021-07-20T06:27:06Z,42.805,6.029,13.3055,4.60052,2470.45,2021-7-20T08:28:22Z
2021-07-20T06:30:09Z,42.805,6.029,13.3052,4.60060,2470.437,2021-7-20T08:31:25Z
2021-07-20T06:33:12Z,42.805,6.029,13.3064,4.60054,2470.483,2021-7-20T08:34:29Z
2021-07-20T06:36:15Z,42.805,6.029,13.3065,4.60064,2470.45,2021-7-20T08:37:32Z
2021-07-20T06:39:18Z,42.805,6.029,13.3069,4.60042,2470.427,2021-7-20T08:40:35Z
2021-07-20T06:42:22Z,42.805,6.029,13.3072,4.60059,2470.413,2021-7-20T08:43:38Z
2021-07-20T06:45:25Z,42.805,6.029,13.3069,4.60067,2470.45,2021-7-20T08:46:41Z
2021-07-20T06:48:28Z,42.805,6.029,13.3074,4.60057,2470.46,2021-7-20T08:49:44Z
2021-07-20T06:51:31Z,42.805,6.029,13.3006,4.60099,2470.437,2021-7-20T08:52:47Z
2021-07-20T06:54:34Z,42.805,6.029,13.3015,4.60070,2470.45,2021-7-20T08:55:50Z
2021-07-20T06:57:37Z,42.805,6.029,13.3003,4.60142,2470.45,2021-7-20T08:58:54Z
2021-07-20T07:00:40Z,42.805,6.029,13.2996,4.60132,2470.474,2021-7-20T09:01:57Z
2021-07-20T07:03:43Z,42.805,6.029,13.3013,4.60107,2470.46,2021-7-20T09:05:00Z
2021-07-20T07:06:46Z,42.805,6.029,13.2994,4.60081,2470.437,2021-7-20T09:08:03Z
2021-07-20T07:09:50Z,42.805,6.029,13.2996,4.60089,2470.413,2021-7-20T09:11:06Z
2021-07-20T07:12:53Z,42.805,6.029,13.2996,4.60109,2470.483,2021-7-20T09:14:09Z
2021-07-20T07:15:56Z,42.805,6.029,13.3000,4.60100,2470.46,2021-7-20T09:17:12Z
2021-07-20T07:18:59Z,42.805,6.029,13.3000,4.60090,2470.437,2021-7-20T09:20:15Z
2021-07-20T07:22:02Z,42.805,6.029,13.2999,4.60110,2470.413,2021-7-20T09:23:19Z
2021-07-20T07:25:05Z,42.805,6.029,13.3010,4.60069,2470.437,2021-7-20T09:26:22Z
2021-07-20T07:28:08Z,42.805,6.029,13.2996,4.60026,2470.413,2021-7-20T09:29:25Z
2021-07-20T07:31:11Z,42.805,6.029,13.2995,4.60019,2470.413,2021-7-20T09:32:28Z
2021-07-20T07:34:15Z,42.805,6.029,13.2992,4.60043,2470.437,2021-7-20T09:35:31Z
2021-07-20T07:37:18Z,42.805,6.029,13.2998,4.60028,2470.437,2021-7-20T09:38:34Z
2021-07-20T07:40:21Z,42.805,6.029,13.2997,4.60021,2470.427,2021-7-20T09:41:37Z
2021-07-20T07:43:24Z,42.805,6.029,13.2991,4.60029,2470.413,2021-7-20T09:44:40Z
2021-07-20T07:46:27Z,42.805,6.029,13.2992,4.60054,2470.413,2021-7-20T09:47:43Z
2021-07-20T07:49:30Z,42.805,6.029,13.2991,4.60048,2470.413,2021-7-20T09:50:47Z
2021-07-20T07:52:33Z,42.805,6.029,13.2993,4.60021,2470.413,2021-7-20T09:53:50Z
2021-07-20T07:55:36Z,42.805,6.029,13.2993,4.60025,2470.39,2021-7-20T09:56:53Z
2021-07-20T07:58:40Z,42.805,6.029,13.2990,4.60028,2470.427,2021-7-20T09:59:56Z
2021-07-20T08:01:43Z,42.805,6.029,13.2990,4.60015,2470.427,2021-7-20T10:02:59Z
2021-07-20T08:04:46Z,42.805,6.029,13.2993,4.60014,2470.45,2021-7-20T10:06:02Z
2021-07-20T08:07:49Z,42.805,6.029,13.2989,4.60050,2470.39,2021-7-20T10:09:05Z
2021-07-20T08:10:52Z,42.805,6.029,13.2990,4.60024,2470.39,2021-7-20T10:12:08Z
2021-07-20T08:13:55Z,42.805,6.029,13.2995,4.60019,2470.427,2021-7-20T10:15:12Z
2021-07-20T08:16:58Z,42.805,6.029,13.2991,4.60010,2470.413,2021-7-20T10:18:15Z
2021-07-20T08:20:01Z,42.805,6.029,13.2995,4.60016,2470.413,2021-7-20T10:21:18Z
2021-07-20T08:23:05Z,42.805,6.029,13.2992,4.60015,2470.404,2021-7-20T10:24:21Z
2021-07-20T08:26:08Z,42.805,6.029,13.2991,4.60023,2470.39,2021-7-20T10:27:24Z
2021-07-20T08:29:11Z,42.805,6.029,13.2994,4.60044,2470.413,2021-7-20T10:30:27Z
2021-07-20T08:32:14Z,42.805,6.029,13.2993,4.60042,2470.404,2021-7-20T10:33:30Z
2021-07-20T08:35:17Z,42.805,6.029,13.2993,4.60046,2470.39,2021-7-20T10:36:34Z
2021-07-20T08:38:20Z,42.805,6.029,13.2995,4.60020,2470.46,2021-7-20T10:39:37Z
2021-07-20T08:41:23Z,42.805,6.029,13.3004,4.60017,2470.404,2021-7-20T10:42:40Z
2021-07-20T08:44:27Z,42.805,6.029,13.3007,4.60010,2470.39,2021-7-20T10:45:43Z
2021-07-20T08:47:30Z,42.805,6.029,13.3004,4.60015,2470.427,2021-7-20T10:48:46Z
2021-07-20T08:50:33Z,42.805,6.029,13.3001,4.60018,2470.39,2021-7-20T10:51:49Z
2021-07-20T08:53:36Z,42.805,6.029,13.2995,4.60009,2470.427,2021-7-20T10:54:52Z
2021-07-20T08:56:39Z,42.805,6.029,13.2994,4.60011,2470.413,2021-7-20T10:57:55Z
2021-07-20T08:59:42Z,42.805,6.029,13.2998,4.60009,2470.404,2021-7-20T11:00:59Z
2021-07-20T09:02:45Z,42.805,6.029,13.2993,4.60006,2470.366,2021-7-20T11:04:02Z
2021-07-20T09:05:48Z,42.805,6.029,13.2995,4.60003,2470.39,2021-7-20T11:07:05Z
2021-07-20T09:08:52Z,42.805,6.029,13.2994,4.60005,2470.404,2021-7-20T11:10:08Z
2021-07-20T09:11:55Z,42.805,6.029,13.2996,4.60002,2470.39,2021-7-20T11:13:11Z
2021-07-20T09:14:58Z,42.805,6.029,13.2992,4.60004,2470.404,2021-7-20T11:16:14Z
2021-07-20T09:18:01Z,42.805,6.029,13.2993,4.60008,2470.366,2021-7-20T11:19:17Z
2021-07-20T09:21:04Z,42.805,6.029,13.2997,4.60005,2470.39,2021-7-20T11:22:20Z
2021-07-20T09:24:07Z,42.805,6.029,13.2996,4.60006,2470.39,2021-7-20T11:25:24Z
2021-07-20T09:27:10Z,42.805,6.029,13.2996,4.60003,2470.366,2021-7-20T11:28:27Z
2021-07-20T09:30:13Z,42.805,6.029,13.2996,4.60009,2470.39,2021-7-20T11:31:30Z
2021-07-20T09:33:17Z,42.805,6.029,13.2993,4.60004,2470.39,2021-7-20T11:34:33Z
2021-07-20T09:36:20Z,42.805,6.029,13.2991,4.60004,2470.404,2021-7-20T11:37:36Z
2021-07-20T09:39:23Z,42.805,6.029,13.2991,4.60003,2470.404,2021-7-20T11:40:39Z
2021-07-20T09:42:26Z,42.805,6.029,13.2988,4.60004,2470.366,2021-7-20T11:43:42Z
2021-07-20T09:45:29Z,42.805,6.029,13.2991,4.60004,2470.39,2021-7-20T11:46:45Z
2021-07-20T09:48:32Z,42.805,6.029,13.2993,4.60007,2470.38,2021-7-20T11:49:49Z
2021-07-20T09:51:35Z,42.805,6.029,13.2992,4.60003,2470.404,2021-7-20T11:52:52Z
2021-07-20T09:54:38Z,42.805,6.029,13.2995,4.60003,2470.437,2021-7-20T11:55:55Z
2021-07-20T09:57:42Z,42.805,6.029,13.2990,4.60004,2470.413,2021-7-20T11:58:58Z
2021-07-20T10:00:45Z,42.805,6.029,13.2993,4.60002,2470.413,2021-7-20T12:02:01Z
2021-07-20T10:03:48Z,42.805,6.029,13.2995,4.60006,2470.38,2021-7-20T12:05:04Z
2021-07-20T10:06:51Z,42.805,6.029,13.2991,4.60005,2470.38,2021-7-20T12:08:07Z
2021-07-20T10:09:54Z,42.805,6.029,13.2991,4.60003,2470.366,2021-7-20T12:11:10Z
2021-07-20T10:12:57Z,42.805,6.029,13.2992,4.60003,2470.39,2021-7-20T12:14:14Z
2021-07-20T10:16:00Z,42.805,6.029,13.2988,4.60004,2470.366,2021-7-20T12:17:17Z
2021-07-20T10:19:03Z,42.805,6.029,13.2990,4.60009,2470.39,2021-7-20T12:20:20Z
2021-07-20T10:22:07Z,42.805,6.029,13.2989,4.60010,2470.39,2021-7-20T12:23:23Z
2021-07-20T10:25:10Z,42.805,6.029,13.2991,4.60008,2470.404,2021-7-20T12:26:26Z
2021-07-20T10:28:13Z,42.805,6.029,13.2990,4.60010,2470.39,2021-7-20T12:29:29Z
2021-07-20T10:31:16Z,42.805,6.029,13.2991,4.60006,2470.366,2021-7-20T12:32:32Z
2021-07-20T10:34:19Z,42.805,6.029,13.2991,4.60001,2470.427,2021-7-20T12:35:35Z
2021-07-20T10:37:22Z,42.805,6.029,13.2991,4.60005,2470.366,2021-7-20T12:38:39Z
2021-07-20T10:40:25Z,42.805,6.029,13.2991,4.60006,2470.38,2021-7-20T12:41:42Z
2021-07-20T10:43:28Z,42.805,6.029,13.2989,4.60003,2470.366,2021-7-20T12:44:45Z
2021-07-20T10:46:32Z,42.805,6.029,13.2990,4.60007,2470.343,2021-7-20T12:47:48Z
2021-07-20T10:49:35Z,42.805,6.029,13.2990,4.60001,2470.39,2021-7-20T12:50:51Z
2021-07-20T10:52:38Z,42.805,6.029,13.2992,4.60003,2470.39,2021-7-20T12:53:54Z
2021-07-20T10:55:41Z,42.805,6.029,13.2990,4.60006,2470.343,2021-7-20T12:56:57Z
2021-07-20T10:58:44Z,42.805,6.029,13.2990,4.60003,2470.404,2021-7-20T13:00:01Z
2021-07-20T11:01:47Z,42.805,6.029,13.2988,4.60003,2470.39,2021-7-20T13:03:04Z
2021-07-20T11:04:50Z,42.805,6.029,13.2991,4.60006,2470.404,2021-7-20T13:06:07Z
2021-07-20T11:07:53Z,42.805,6.029,13.2991,4.60010,2470.366,2021-7-20T13:09:10Z
2021-07-20T11:10:57Z,42.805,6.029,13.2987,4.60001,2470.366,2021-7-20T13:12:13Z
2021-07-20T11:14:00Z,42.805,6.029,13.2990,4.60002,2470.366,2021-7-20T13:15:16Z
2021-07-20T11:17:03Z,42.805,6.029,13.2991,4.60003,2470.39,2021-7-20T13:18:19Z
2021-07-20T11:20:06Z,42.805,6.029,13.2992,4.60006,2470.353,2021-7-20T13:21:22Z
2021-07-20T11:23:09Z,42.805,6.029,13.2991,4.60011,2470.38,2021-7-20T13:24:26Z
2021-07-20T11:26:12Z,42.805,6.029,13.2994,4.60003,2470.39,2021-7-20T13:27:29Z
2021-07-20T11:29:15Z,42.805,6.029,13.2991,4.60002,2470.39,2021-7-20T13:30:32Z
2021-07-20T11:32:19Z,42.805,6.029,13.2992,4.60004,2470.366,2021-7-20T13:33:35Z
2021-07-20T11:35:22Z,42.805,6.029,13.2990,4.60005,2470.413,2021-7-20T13:36:38Z
2021-07-20T11:38:25Z,42.805,6.029,13.2992,4.60006,2470.39,2021-7-20T13:39:41Z
2021-07-20T11:41:28Z,42.805,6.029,13.2990,4.60006,2470.404,2021-7-20T13:42:44Z
2021-07-20T11:44:31Z,42.805,6.029,13.2991,4.60007,2470.38,2021-7-20T13:45:47Z
2021-07-20T11:47:34Z,42.805,6.029,13.2991,4.60003,2470.39,2021-7-20T13:48:51Z
2021-07-20T11:50:37Z,42.805,6.029,13.2990,4.60004,2470.39,2021-7-20T13:51:54Z
2021-07-20T11:53:40Z,42.805,6.029,13.2993,4.60003,2470.39,2021-7-20T13:54:57Z
2021-07-20T11:56:44Z,42.805,6.029,13.2992,4.60005,2470.39,2021-7-20T13:58:00Z
2021-07-20T11:59:47Z,42.805,6.029,13.2993,4.60006,2470.413,2021-7-20T14:01:03Z
2021-07-20T12:02:50Z,42.805,6.029,13.2994,4.60005,2470.39,2021-7-20T14:04:06Z
2021-07-20T12:05:53Z,42.805,6.029,13.2992,4.60005,2470.399,2021-7-20T14:07:09Z
2021-07-20T12:08:56Z,42.805,6.029,13.2993,4.60007,2470.437,2021-7-20T14:10:12Z
2021-07-20T12:11:59Z,42.805,6.029,13.2993,4.60003,2470.413,2021-7-20T14:13:16Z
2021-07-20T12:15:02Z,42.805,6.029,13.2991,4.60002,2470.413,2021-7-20T14:16:19Z
2021-07-20T12:18:05Z,42.805,6.029,13.2994,4.60006,2470.39,2021-7-20T14:19:22Z
2021-07-20T12:21:09Z,42.805,6.029,13.2990,4.60007,2470.427,2021-7-20T14:22:25Z
2021-07-20T12:24:12Z,42.805,6.029,13.2992,4.60016,2470.404,2021-7-20T14:25:28Z
2021-07-20T12:27:15Z,42.805,6.029,13.2995,4.60006,2470.404,2021-7-20T14:28:31Z
2021-07-20T12:30:18Z,42.805,6.029,13.2991,4.60031,2470.413,2021-7-20T14:31:34Z
2021-07-20T12:33:21Z,42.805,6.029,13.2987,4.60016,2470.437,2021-7-20T14:34:38Z
2021-07-20T12:36:24Z,42.805,6.029,13.2993,4.60005,2470.437,2021-7-20T14:37:41Z
2021-07-20T12:39:27Z,42.805,6.029,13.2994,4.60012,2470.413,2021-7-20T14:40:44Z
2021-07-20T12:42:30Z,42.805,6.029,13.2992,4.60003,2470.413,2021-7-20T14:43:47Z
2021-07-20T12:45:34Z,42.805,6.029,13.2995,4.60003,2470.427,2021-7-20T14:46:50Z
2021-07-20T12:48:37Z,42.805,6.029,13.2990,4.60003,2470.413,2021-7-20T14:49:53Z
2021-07-20T12:51:40Z,42.805,6.029,13.2993,4.60006,2470.413,2021-7-20T14:52:56Z
2021-07-20T12:54:43Z,42.805,6.029,13.2992,4.60003,2470.46,2021-7-20T14:55:59Z
2021-07-20T12:57:46Z,42.805,6.029,13.2996,4.60004,2470.45,2021-7-20T14:59:03Z
2021-07-20T13:00:49Z,42.805,6.029,13.2993,4.60003,2470.437,2021-7-20T15:02:06Z
2021-07-20T13:03:52Z,42.805,6.029,13.2991,4.60003,2470.46,2021-7-20T15:05:09Z
2021-07-20T13:06:55Z,42.805,6.029,13.2990,4.60003,2470.437,2021-7-20T15:08:12Z
2021-07-20T13:09:59Z,42.805,6.029,13.2988,4.60006,2470.437,2021-7-20T15:11:15Z
2021-07-20T13:13:02Z,42.805,6.029,13.2990,4.60001,2470.483,2021-7-20T15:14:18Z
2021-07-20T13:16:05Z,42.805,6.029,13.2992,4.60002,2470.46,2021-7-20T15:17:21Z
2021-07-20T13:19:08Z,42.805,6.029,13.2993,4.60002,2470.46,2021-7-20T15:20:24Z
2021-07-20T13:22:11Z,42.805,6.029,13.2991,4.60005,2470.483,2021-7-20T15:23:28Z
2021-07-20T13:25:14Z,42.805,6.029,13.2990,4.60009,2470.413,2021-7-20T15:26:31Z
2021-07-20T13:28:17Z,42.805,6.029,13.2990,4.60004,2470.46,2021-7-20T15:29:34Z
2021-07-20T13:31:21Z,42.805,6.029,13.2991,4.60002,2470.483,2021-7-20T15:32:37Z
2021-07-20T13:34:24Z,42.805,6.029,13.2991,4.60001,2470.46,2021-7-20T15:35:40Z
2021-07-20T13:37:27Z,42.805,6.029,13.2992,4.60008,2470.46,2021-7-20T15:38:43Z
2021-07-20T13:40:30Z,42.805,6.029,13.2994,4.60005,2470.46,2021-7-20T15:41:46Z
2021-07-20T13:43:33Z,42.805,6.029,13.2996,4.60005,2470.483,2021-7-20T15:44:49Z
2021-07-20T13:46:36Z,42.805,6.029,13.2989,4.60003,2470.474,2021-7-20T15:47:53Z
2021-07-20T13:49:39Z,42.805,6.029,13.2997,4.60003,2470.483,2021-7-20T15:50:56Z
2021-07-20T13:52:42Z,42.805,6.029,13.2992,4.60002,2470.511,2021-7-20T15:53:59Z
2021-07-20T13:55:46Z,42.805,6.029,13.2991,4.60003,2470.497,2021-7-20T15:57:02Z
2021-07-20T13:58:49Z,42.805,6.029,13.2990,4.60001,2470.483,2021-7-20T16:00:05Z
2021-07-20T14:01:52Z,42.805,6.029,13.2996,4.60003,2470.483,2021-7-20T16:03:08Z
2021-07-20T14:04:55Z,42.805,6.029,13.2993,4.60003,2470.497,2021-7-20T16:06:11Z
2021-07-20T14:07:58Z,42.805,6.029,13.2992,4.60000,2470.52,2021-7-20T16:09:14Z
2021-07-20T14:11:01Z,42.805,6.029,13.2990,4.60001,2470.474,2021-7-20T16:12:18Z
2021-07-20T14:14:04Z,42.805,6.029,13.2994,4.60001,2470.497,2021-7-20T16:15:21Z
2021-07-20T14:17:07Z,42.805,6.029,13.2990,4.60003,2470.497,2021-7-20T16:18:24Z
2021-07-20T14:20:11Z,42.805,6.029,13.2993,4.60003,2470.483,2021-7-20T16:21:27Z
2021-07-20T14:23:14Z,42.805,6.029,13.2990,4.60015,2470.507,2021-7-20T16:24:30Z
2021-07-20T14:26:17Z,42.805,6.029,13.2993,4.60003,2470.53,2021-7-20T16:27:33Z
2021-07-20T14:29:20Z,42.805,6.029,13.2992,4.60003,2470.52,2021-7-20T16:30:36Z
2021-07-20T14:32:23Z,42.805,6.029,13.2994,4.60001,2470.52,2021-7-20T16:33:40Z
2021-07-20T14:35:26Z,42.805,6.029,13.2996,4.60001,2470.53,2021-7-20T16:36:43Z
2021-07-20T14:38:29Z,42.805,6.029,13.2993,4.60003,2470.544,2021-7-20T16:39:46Z
2021-07-20T14:41:33Z,42.805,6.029,13.2991,4.60001,2470.483,2021-7-20T16:42:49Z
2021-07-20T14:44:36Z,42.805,6.029,13.2989,4.60003,2470.497,2021-7-20T16:45:52Z
2021-07-20T14:47:39Z,42.805,6.029,13.2995,4.60001,2470.507,2021-7-20T16:48:55Z
2021-07-20T14:50:42Z,42.805,6.029,13.2991,4.60001,2470.544,2021-7-20T16:51:58Z
2021-07-20T14:53:45Z,42.805,6.029,13.2992,4.59999,2470.567,2021-7-20T16:55:01Z
2021-07-20T14:56:48Z,42.805,6.029,13.2990,4.60001,2470.544,2021-7-20T16:58:05Z
2021-07-20T14:59:51Z,42.805,6.029,13.2991,4.60000,2470.553,2021-7-20T17:01:08Z
2021-07-20T15:02:54Z,42.805,6.029,13.2991,4.60001,2470.507,2021-7-20T17:04:11Z
2021-07-20T15:05:57Z,42.805,6.029,13.2992,4.60001,2470.52,2021-7-20T17:07:14Z
2021-07-20T15:09:01Z,42.805,6.029,13.2991,4.60015,2470.567,2021-7-20T17:10:17Z
2021-07-20T15:12:04Z,42.805,6.029,13.2990,4.60004,2470.567,2021-7-20T17:13:20Z
2021-07-20T15:15:07Z,42.805,6.029,13.2990,4.60001,2470.52,2021-7-20T17:16:23Z